| time (UTC) | temp F | wind direction | speed MPH | gust MPH | rain 1hr in | rain 24hr in | rain mn in | humidity % | barometer mb |
| 20260508071532 | 45 | 158 | 4.0 | 7.0 | 0.00 | 0.00 | 0.00 | 58 | 1017.5 |
| 20260508070030 | 44 | 151 | 6.0 | 9.0 | 0.00 | 0.00 | 0.00 | 58 | 1017.5 |
| 20260508064531 | 43 | 157 | 5.0 | 8.0 | 0.00 | 0.00 | 0.00 | 59 | 1017.6 |
| 20260508063036 | 43 | 162 | 4.0 | 7.0 | 0.00 | 0.00 | 0.00 | 59 | 1017.6 |
| 20260508061536 | 44 | 156 | 4.0 | 6.0 | 0.00 | 0.00 | 0.00 | 57 | 1017.7 |
| 20260508053031 | 45 | 171 | 5.0 | 6.0 | 0.00 | 0.00 | 0.00 | 52 | 1017.7 |
| 20260508051534 | 46 | 180 | 4.0 | 5.0 | 0.00 | 0.00 | 0.00 | 49 | 1017.7 |
| 20260508050035 | 47 | 183 | 3.0 | 5.0 | 0.00 | 0.00 | 0.00 | 45 | 1017.9 |
| 20260508044536 | 50 | 255 | 1.0 | 4.0 | 0.00 | 0.00 | 0.00 | 41 | 1017.7 |
| 20260508043106 | 51 | 358 | 1.0 | 6.0 | 0.00 | 0.00 | 0.00 | 40 | 1017.6 |
| 20260508041531 | 53 | 38 | 1.0 | 6.0 | 0.00 | 0.00 | 0.00 | 38 | 1017.5 |
| 20260508040031 | 55 | 26 | 3.0 | 7.0 | 0.00 | 0.00 | 0.00 | 38 | 1017.2 |
| 20260508030031 | 60 | 347 | 4.0 | 9.0 | 0.00 | 0.00 | 0.00 | 38 | 1016.6 |
| 20260508024534 | 60 | 326 | 5.0 | 13.0 | 0.00 | 0.00 | 0.00 | 38 | 1016.6 |
| 20260508023030 | 62 | 347 | 5.0 | 10.0 | 0.00 | 0.00 | 0.00 | 35 | 1016.5 |
| 20260508021531 | 63 | 334 | 3.0 | 9.0 | 0.00 | 0.00 | 0.00 | 32 | 1016.4 |
| 20260508020052 | 65 | 283 | 6.0 | 15.0 | 0.00 | 0.00 | 0.00 | 29 | 1016.2 |
| 20260508014531 | 67 | 291 | 8.0 | 20.0 | 0.00 | 0.00 | 0.00 | 29 | 1016.1 |
| 20260508013035 | 67 | 279 | 8.0 | 17.0 | 0.00 | 0.00 | 0.00 | 28 | 1016.2 |
| 20260508011534 | 68 | 273 | 10.0 | 25.0 | 0.00 | 0.00 | 0.00 | 26 | 1016.3 |
| 20260508010031 | 68 | 285 | 12.0 | 23.0 | 0.00 | 0.00 | 0.00 | 26 | 1016.3 |
| 20260508004647 | 69 | 279 | 11.0 | 23.0 | 0.00 | 0.00 | 0.00 | 26 | 1016.4 |
| 20260508001535 | 71 | 280 | 9.0 | 20.0 | 0.00 | 0.00 | 0.00 | 25 | 1016.5 |
| 20260508000032 | 72 | 273 | 8.0 | 22.0 | 0.00 | 0.00 | 0.00 | 24 | 1016.5 |
| 20260507234608 | 73 | 265 | 8.0 | 21.0 | 0.00 | 0.00 | 0.00 | 25 | 1016.5 |
| 20260507231528 | 73 | 266 | 7.0 | 17.0 | 0.00 | 0.00 | 0.00 | 25 | 1016.6 |
| 20260507230031 | 72 | 282 | 8.0 | 19.0 | 0.00 | 0.00 | 0.00 | 25 | 1016.7 |
| 20260507224543 | 72 | 289 | 7.0 | 20.0 | 0.00 | 0.00 | 0.00 | 25 | 1016.8 |
| 20260507221536 | 71 | 295 | 7.0 | 15.0 | 0.00 | 0.00 | 0.00 | 26 | 1017.3 |
| 20260507220033 | 72 | 268 | 8.0 | 18.0 | 0.00 | 0.00 | 0.00 | 26 | 1017.4 |
| 20260507213040 | 70 | 325 | 9.0 | 18.0 | 0.00 | 0.00 | 0.00 | 30 | 1017.4 |
| 20260507213035 | 68 | 342 | 10.0 | 24.0 | 0.00 | 0.00 | 0.00 | 32 | 1017.5 |
| 20260507210030 | 70 | 357 | 12.0 | 21.0 | 0.00 | 0.00 | 0.00 | 34 | 1017.6 |
| 20260507204535 | 70 | 359 | 10.0 | 18.0 | 0.00 | 0.00 | 0.00 | 33 | 1017.7 |
| 20260507203036 | 70 | 344 | 11.0 | 18.0 | 0.00 | 0.00 | 0.00 | 29 | 1017.9 |
| 20260507201537 | 71 | 337 | 9.0 | 19.0 | 0.00 | 0.00 | 0.00 | 29 | 1018.1 |
| 20260507200106 | 71 | 308 | 7.0 | 16.0 | 0.00 | 0.00 | 0.00 | 29 | 1018.2 |
| 20260507194607 | 70 | 294 | 7.0 | 15.0 | 0.00 | 0.00 | 0.00 | 32 | 1018.3 |
| 20260507191535 | 67 | 18 | 9.0 | 16.0 | 0.00 | 0.00 | 0.00 | 37 | 1018.6 |
| 20260507190033 | 66 | 18 | 9.0 | 15.0 | 0.00 | 0.00 | 0.00 | 38 | 1018.8 |
| 20260507184534 | 65 | 14 | 7.0 | 12.0 | 0.00 | 0.00 | 0.00 | 41 | 1019.0 |
| 20260507181537 | 65 | 53 | 6.0 | 11.0 | 0.00 | 0.00 | 0.00 | 44 | 1019.2 |
| 20260507180032 | 63 | 26 | 4.0 | 10.0 | 0.00 | 0.00 | 0.00 | 48 | 1019.4 |
| 20260507174537 | 61 | 26 | 6.0 | 11.0 | 0.00 | 0.00 | 0.00 | 51 | 1019.7 |
| 20260507171539 | 60 | 23 | 5.0 | 10.0 | 0.00 | 0.00 | 0.00 | 53 | 1019.7 |
| 20260507170034 | 58 | 35 | 6.0 | 10.0 | 0.00 | 0.00 | 0.00 | 55 | 1019.6 |
| 20260507164641 | 57 | 22 | 8.0 | 12.0 | 0.00 | 0.00 | 0.00 | 56 | 1019.6 |
| 20260507163034 | 57 | 21 | 9.0 | 14.0 | 0.00 | 0.00 | 0.00 | 58 | 1019.6 |
| 20260507161539 | 57 | 43 | 6.0 | 13.0 | 0.00 | 0.00 | 0.00 | 60 | 1019.5 |
| 20260507160032 | 56 | 38 | 6.0 | 10.0 | 0.00 | 0.00 | 0.00 | 62 | 1019.6 |
| 20260507154534 | 56 | 36 | 6.0 | 9.0 | 0.00 | 0.00 | 0.00 | 63 | 1019.5 |
| 20260507153034 | 56 | 31 | 4.0 | 7.0 | 0.00 | 0.00 | 0.00 | 65 | 1019.6 |
| 20260507151531 | 55 | 44 | 4.0 | 7.0 | 0.00 | 0.00 | 0.00 | 66 | 1019.7 |
| 20260507150048 | 55 | 13 | 3.0 | 7.0 | 0.00 | 0.00 | 0.00 | 66 | 1019.7 |
| 20260507144537 | 55 | 334 | 2.0 | 6.0 | 0.00 | 0.00 | 0.00 | 67 | 1019.7 |
| 20260507141532 | 53 | 17 | 2.0 | 4.0 | 0.00 | 0.00 | 0.00 | 72 | 1019.5 |
| 20260507140031 | 51 | 30 | 3.0 | 7.0 | 0.00 | 0.00 | 0.00 | 75 | 1019.5 |
| 20260507134537 | 48 | 67 | 4.0 | 7.0 | 0.00 | 0.00 | 0.00 | 78 | 1019.3 |
| 20260507133106 | 48 | 118 | 3.0 | 7.0 | 0.00 | 0.00 | 0.00 | 77 | 1019.3 |
| 20260507131536 | 49 | 27 | 4.0 | 9.0 | 0.00 | 0.00 | 0.00 | 77 | 1019.2 |
| 20260507130030 | 49 | 349 | 6.0 | 11.0 | 0.00 | 0.00 | 0.00 | 76 | 1019.1 |
| 20260507124531 | 50 | 350 | 7.0 | 12.0 | 0.00 | 0.00 | 0.00 | 73 | 1019.1 |
| 20260507123030 | 51 | 314 | 7.0 | 13.0 | 0.00 | 0.00 | 0.00 | 72 | 1019.0 |
| 20260507121536 | 51 | 286 | 6.0 | 16.0 | 0.00 | 0.00 | 0.00 | 72 | 1018.8 |
| 20260507120033 | 51 | 287 | 7.0 | 16.0 | 0.00 | 0.00 | 0.00 | 72 | 1018.8 |
| 20260507113034 | 51 | 261 | 7.0 | 24.0 | 0.00 | 0.00 | 0.00 | 73 | 1018.8 |
| 20260507111531 | 51 | 246 | 7.0 | 20.0 | 0.00 | 0.00 | 0.00 | 73 | 1018.8 |
| 20260507110032 | 52 | 248 | 8.0 | 22.0 | 0.00 | 0.00 | 0.00 | 72 | 1018.8 |
| 20260507103036 | 52 | 244 | 8.0 | 21.0 | 0.00 | 0.00 | 0.00 | 70 | 1019.0 |
| 20260507101531 | 53 | 266 | 7.0 | 18.0 | 0.00 | 0.00 | 0.00 | 68 | 1019.2 |
| 20260507100048 | 53 | 259 | 8.0 | 25.0 | 0.00 | 0.00 | 0.00 | 68 | 1019.2 |
| 20260507094606 | 53 | 256 | 8.0 | 24.0 | 0.00 | 0.00 | 0.00 | 68 | 1019.2 |
| 20260507091535 | 53 | 229 | 10.0 | 21.0 | 0.00 | 0.00 | 0.00 | 69 | 1019.3 |
| 20260507084535 | 53 | 230 | 9.0 | 21.0 | 0.00 | 0.00 | 0.00 | 69 | 1019.7 |
| 20260507083028 | 54 | 226 | 9.0 | 22.0 | 0.00 | 0.00 | 0.00 | 69 | 1019.7 |
| 20260507081533 | 54 | 240 | 7.0 | 22.0 | 0.00 | 0.00 | 0.00 | 69 | 1019.7 |
| 20260507080149 | 54 | 249 | 6.0 | 15.0 | 0.00 | 0.00 | 0.00 | 69 | 1019.7 |
| 20260507074532 | 54 | 262 | 4.0 | 18.0 | 0.00 | 0.00 | 0.00 | 69 | 1019.8 |